• Join FlightAware (Why Join?)
  • Login
  • US Flag 
02:10AM EDT


 

Airport Tracker/Info


-or-


 

Live Flight TrackerFlight Track Log ✈ LJY630 ✈ 24-Dec-2013 ✈ KMGW - KILG

Flight Track Log - Related Links

Times and Time Zones

All times are in EST time to prevent confusion due to time zone crossing. See the LJY630 flight status page for this flight to view local times or setup timezone preferences in your user account.

Time Position Orientation Groundspeed Altitude Reporting Facility
EST Latitude Longitude Course Direction KTS MPH feet Rate Location/Type
04:21PM 39.6703 -79.9208 34° Northeast 167 192 25,000  Level Cleveland Center
04:22PM 39.7147 -79.8819 34° Northeast 257 296 5,600 -8,040 Descending Cleveland Center
04:23PM 39.7589 -79.8094 52° Northeast 259 298 8,600 3,660 Climbing Cleveland Center
04:24PM 39.8133 -79.7064 55° Northeast 295 339 13,200 3,600 Climbing Cleveland Center
04:25PM 39.8406 -79.5828 74° East 360 414 16,000 2,340 Climbing Cleveland Center
04:26PM 39.8667 -79.4461 76° East 382 440 18,000 2,040 Climbing Cleveland Center
04:27PM 39.8956 -79.2989 76° East 410 472 20,200 1,920 Climbing Cleveland Center
04:28PM 39.9250 -79.1419 76° East 436 502 22,000 1,320 Climbing Cleveland Center
04:29PM 39.9603 -78.9589 76° East 472 543 23,000 480 Climbing Cleveland Center
04:30PM 39.9939 -78.7839 76° East 496 571 23,000  Level Cleveland Center
04:31PM 40.0269 -78.6089 76° East 500 575 23,000  Level Cleveland Center
04:32PM 40.0592 -78.4386 76° East 491 565 23,000  Level Cleveland Center
04:33PM 40.0914 -78.2672 76° East 490 564 23,000  Level Cleveland Center
04:34PM 40.1278 -78.0619 77° East 488 562 23,000  Level Cleveland Center
04:35PM 40.1583 -77.8906 77° East 489 563 23,000 -120 Level Cleveland Center
04:36PM 40.1819 -77.7147 80° East 492 566 22,800 -540 Descending Cleveland Center
04:37PM 40.1639 -77.5417 98° East 482 555 22,000 -960 Descending Cleveland Center
04:38PM 40.1228 -77.3733 108° East 484 557 20,900 -1,140 Descending Cleveland Center
04:39PM 40.0822 -77.2058 108° East 483 556 19,700 -1,440 Descending Cleveland Center
04:40PM 40.0433 -77.0497 108° East 456 525 18,000 -1,560 Descending Cleveland Center
04:41PM 40.0072 -76.8994 107° East 436 502 16,600 -1,560 Descending Cleveland Center
04:42PM 39.9708 -76.7522 108° East 429 494 14,900 -1,620 Descending Cleveland Center
04:43PM 39.9342 -76.6075 108° East 424 488 13,400 -1,260 Descending Cleveland Center
04:44PM 39.8992 -76.4703 108° East 407 468 12,400 -1,020 Descending Cleveland Center
04:45PM 39.8675 -76.3422 108° East 383 441 11,400 -1,140 Descending Cleveland Center
04:46PM 39.8333 -76.2167 109° East 361 415 10,400 -1,020 Descending Philadelphia TRACON
04:47PM 39.8167 -76.1167 102° East 313 360 9,600 -1,260 Descending Philadelphia TRACON
04:48PM 39.7833 -76.0167 113° Southeast 250 288 7,900 -1,560 Descending Philadelphia TRACON
04:49PM 39.7667 -75.9333 105° East 229 264 6,500 -1,680 Descending Philadelphia TRACON
04:50PM 39.7500 -75.8667 108° East 228 262 4,600 -1,260 Descending Philadelphia TRACON
04:51PM 39.7333 -75.7833 105° East 226 260 4,000 -360 Descending Philadelphia TRACON
04:52PM 39.7333 -75.7167 90° East 224 258 4,000 -120 Level Philadelphia TRACON
04:53PM 39.7333 -75.6167 90° East 221 254 3,800 -600 Descending Philadelphia TRACON
04:54PM 39.7333 -75.5500 90° East 213 245 2,900 -1,020 Descending Philadelphia TRACON
04:55PM 39.7000 -75.5167 142° Southeast 156 180 2,000 -1,020 Descending Philadelphia TRACON
04:56PM 39.6833 -75.5500 237° Southwest 117 135 900 -1,020 Descending Philadelphia TRACON